This is the latest recevied weather packets stored in our database for station/object BM6HML-1. If no packets are shown the sender has not sent any weather packets the latest 10 day(s).
| Time | Temp. | Humidity | Pressure | Rain* | Wind** | Luminosity | Snow |
|---|---|---|---|---|---|---|---|
| 1777836860 | 32.22° C | 77% | 1010.5 hPa | - | - | - | - |
| 1777835660 | 32.22° C | 76% | 1010.5 hPa | - | - | - | - |
| 1777834460 | 32.22° C | 76% | 1010.7 hPa | - | - | - | - |
| 1777833260 | 32.22° C | 77% | 1010.6 hPa | - | - | - | - |
| 1777832060 | 32.22° C | 77% | 1010.5 hPa | - | - | - | - |
| 1777830860 | 32.22° C | 78% | 1010.7 hPa | - | - | - | - |
| 1777829659 | 32.22° C | 78% | 1010.7 hPa | - | - | - | - |
| 1777828460 | 32.22° C | 78% | 1010.9 hPa | - | - | - | - |
| 1777827260 | 32.22° C | 74% | 1010.9 hPa | - | - | - | - |
| 1777826060 | 32.78° C | 80% | 1010.8 hPa | - | - | - | - |
| 1777824860 | 32.78° C | 79% | 1010.8 hPa | - | - | - | - |
| 1777823659 | 32.78° C | 73% | 1010.8 hPa | - | - | - | - |
| 1777822460 | 32.78° C | 71% | 1010.7 hPa | - | - | - | - |
| 1777821260 | 32.78° C | 72% | 1010.7 hPa | - | - | - | - |
| 1777820060 | 32.22° C | 74% | 1010.8 hPa | - | - | - | - |
| 1777818860 | 32.22° C | 75% | 1010.8 hPa | - | - | - | - |
| 1777817660 | 32.22° C | 70% | 1010.4 hPa | - | - | - | - |
| 1777816459 | 32.22° C | 72% | 1010.1 hPa | - | - | - | - |
| 1777815260 | 31.11° C | 82% | 1009.7 hPa | - | - | - | - |
| 1777814060 | 30° C | 87% | 1009.6 hPa | - | - | - | - |
| 1777812860 | 30° C | 87% | 1009.6 hPa | - | - | - | - |
| 1777811660 | 30° C | 89% | 1009.6 hPa | - | - | - | - |
| 1777810460 | 30° C | 90% | 1009.5 hPa | - | - | - | - |
| 1777809260 | 30° C | 90% | 1009.4 hPa | - | - | - | - |
| 1777808060 | 30° C | 88% | 1009.3 hPa | - | - | - | - |
* Rain since midnight (hover to see other rain measurements)
** Current wind speed in m/s (hover to see current wind gust speed)